FW7828 Weather Reports


time (UTC)temp
C
wind
direction
speed
KPH
gust
KPH
rain 1hr
cm
rain 24hr
cm
rain mn
cm
humidity
%
barometer
mb
20260904195848 33 201 4.8 4.8 0.00 0.00 0.00 71 1010.5
20260904195346 34 205 4.8 4.8 0.00 0.00 0.00 69 1010.4
20260904194841 34 148 1.6 1.6 0.00 0.00 0.00 70 1010.8
20260904194341 34 142 1.6 3.2 0.00 0.00 0.00 69 1011.0
20260904193836 35 171 1.6 3.2 0.00 0.00 0.00 70 1011.1
20260904193331 35 183 4.8 4.8 0.00 0.00 0.00 68 1011.0
20260904192826 35 153 4.8 4.8 0.00 0.00 0.00 70 1011.1
20260904192321 35 357 0.0 1.6 0.00 0.00 0.00 69 1011.2
20260904191819 35 164 3.2 3.2 0.00 0.00 0.00 67 1011.3
20260904191315 36 282 1.6 1.6 0.00 0.00 0.00 64 1011.5
20260904190811 36 267 1.6 3.2 0.00 0.00 0.00 66 1011.5
20260904190306 35 5 0.0 0.0 0.00 0.00 0.00 65 1011.5
20260904185802 35 4 0.0 0.0 0.00 0.00 0.00 68 1011.6
20260904185257 34 180 1.6 1.6 0.00 0.00 0.00 69 1012.0
20260904184756 33 178 3.2 4.8 0.00 0.00 0.00 71 1011.9
20260904184251 34 123 4.8 4.8 0.00 0.00 0.00 70 1011.8
20260904183747 35 164 4.8 4.8 0.00 0.00 0.00 68 1011.9
20260904183242 35 144 0.0 0.0 0.00 0.00 0.00 66 1012.0
20260904182737 35 157 6.4 8.0 0.00 0.00 0.00 65 1012.1
20260904182233 35 183 4.8 4.8 0.00 0.00 0.00 67 1012.5
20260904181728 35 184 1.6 3.2 0.00 0.00 0.00 66 1012.3
20260904181227 35 164 1.6 1.6 0.00 0.00 0.00 68 1012.4
20260904180723 35 166 3.2 3.2 0.00 0.00 0.00 67 1012.5
20260904180218 34 49 0.0 1.6 0.00 0.00 0.00 66 1012.7
20260904175717 33 137 6.4 8.0 0.00 0.00 0.00 68 1012.5
20260904175216 33 119 6.4 11.3 0.00 0.00 0.00 70 1012.6
20260904174711 33 169 1.6 4.8 0.00 0.00 0.00 71 1012.7
20260904174207 33 197 4.8 4.8 0.00 0.00 0.00 72 1012.6
20260904173702 33 196 3.2 3.2 0.00 0.00 0.00 71 1012.6
20260904173157 33 175 1.6 3.2 0.00 0.00 0.00 71 1012.8
20260904172654 33 178 3.2 3.2 0.00 0.00 0.00 71 1012.8
20260904172153 33 176 3.2 4.8 0.00 0.00 0.00 68 1012.8
20260904171648 33 186 0.0 1.6 0.00 0.00 0.00 69 1012.7
20260904171143 33 165 4.8 4.8 0.00 0.00 0.00 74 1013.0
20260904170640 32 163 3.2 3.2 0.00 0.00 0.00 75 1012.8
20260904170135 32 90 4.8 4.8 0.00 0.00 0.00 74 1013.0
20260904165634 33 142 4.8 4.8 0.00 0.00 0.00 72 1012.9
20260904165133 33 178 1.6 3.2 0.00 0.00 0.00 72 1013.3
20260904164633 33 95 1.6 3.2 0.00 0.00 0.00 71 1013.1
20260904164129 33 151 3.2 3.2 0.00 0.00 0.00 70 1013.5
20260904163624 33 214 4.8 4.8 0.00 0.00 0.00 70 1013.3
20260904163120 33 139 4.8 8.0 0.00 0.00 0.00 70 1013.4
20260904162614 33 75 1.6 1.6 0.00 0.00 0.00 71 1013.5
20260904162109 32 138 1.6 1.6 0.00 0.00 0.00 70 1013.6
20260904161604 32 202 1.6 1.6 0.00 0.00 0.00 72 1013.8
20260904161059 32 248 1.6 1.6 0.00 0.00 0.00 70 1013.4
20260904160554 32 166 3.2 4.8 0.00 0.00 0.00 71 1013.6
20260904160050 32 156 3.2 4.8 0.00 0.00 0.00 73 1013.6
20260904155550 31 173 1.6 3.2 0.00 0.00 0.00 75 1013.5
20260904155044 31 190 3.2 4.8 0.00 0.00 0.00 75 1013.8
20260904154538 31 158 3.2 3.2 0.00 0.00 0.00 74 1013.4
20260904154033 31 159 4.8 4.8 0.00 0.00 0.00 75 1013.6
20260904153532 31 211 4.8 4.8 0.00 0.00 0.00 74 1013.6
20260904153029 31 188 1.6 3.2 0.00 0.00 0.00 74 1013.6
20260904152524 31 93 1.6 1.6 0.00 0.00 0.00 74 1013.6
20260904152020 31 89 3.2 3.2 0.00 0.00 0.00 74 1013.4
20260904151515 31 94 1.6 3.2 0.00 0.00 0.00 74 1013.7
20260904151014 31 112 1.6 1.6 0.00 0.00 0.00 75 1013.9
20260904150515 31 168 4.8 9.7 0.00 0.00 0.00 73 1013.7
20260904150009 31 166 0.0 1.6 0.00 0.00 0.00 75 1013.5
20260904145504 30 175 0.0 3.2 0.00 0.00 0.00 76 1013.4
20260904144959 30 139 1.6 1.6 0.00 0.00 0.00 76 1013.9
20260904144454 30 130 0.0 1.6 0.00 0.00 0.00 77 1013.6
20260904143950 30 197 4.8 4.8 0.00 0.00 0.00 78 1013.8
20260904143446 29 188 3.2 3.2 0.00 0.00 0.00 80 1013.8
20260904142942 29 138 3.2 3.2 0.00 0.00 0.00 80 1013.8
20260904142439 29 357 3.2 3.2 0.00 0.00 0.00 80 1013.7
20260904141933 29 162 0.0 0.0 0.00 0.00 0.00 81 1014.1
20260904141428 28 158 3.2 3.2 0.00 0.00 0.00 81 1013.7
20260904140925 28 124 0.0 1.6 0.00 0.00 0.00 82 1013.8
20260904140424 28 144 1.6 1.6 0.00 0.00 0.00 82 1013.7
20260904135923 28 56 3.2 3.2 0.00 0.00 0.00 81 1013.8
20260904135423 28 183 0.0 1.6 0.00 0.00 0.00 82 1013.6
20260904134920 28 177 3.2 4.8 0.00 0.00 0.00 83 1013.8
20260904134419 28 194 0.0 1.6 0.00 0.00 0.00 84 1013.9
20260904133914 28 180 3.2 4.8 0.00 0.00 0.00 84 1013.5
20260904133409 28 177 4.8 4.8 0.00 0.00 0.00 83 1013.6
20260904132904 28 166 3.2 3.2 0.00 0.00 0.00 84 1013.9
20260904132359 27 173 6.4 11.3 0.00 0.00 0.00 86 1013.8
20260904131858 27 239 3.2 3.2 0.00 0.00 0.00 86 1013.6
20260904131354 27 172 3.2 3.2 0.00 0.00 0.00 86 1013.8
20260904130849 27 199 3.2 3.2 0.00 0.00 0.00 86 1013.9
20260904130348 27 104 3.2 3.2 0.00 0.00 0.00 85 1013.6
20260904125843 27 121 1.6 1.6 0.00 0.00 0.00 86 1014.0
20260904125340 27 196 4.8 8.0 0.00 0.00 0.00 86 1013.7
20260904124839 27 196 1.6 1.6 0.00 0.00 0.00 86 1013.8
20260904124336 27 183 1.6 3.2 0.00 0.00 0.00 87 1014.0
20260904123830 26 166 0.0 1.6 0.00 0.00 0.00 87 1014.1
20260904123326 26 117 3.2 3.2 0.00 0.00 0.00 88 1014.1
20260904122821 26 24 0.0 0.0 0.00 0.00 0.00 88 1014.1
20260904122320 26 31 0.0 0.0 0.00 0.00 0.00 89 1014.3
20260904121816 26 124 3.2 3.2 0.00 0.00 0.00 89 1014.3
20260904121312 26 259 0.0 0.0 0.00 0.00 0.00 89 1014.2
20260904120808 26 129 4.8 4.8 0.00 0.00 0.00 90 1014.2
20260904120303 26 78 1.6 1.6 0.00 0.00 0.00 90 1014.4
20260904115758 26 202 0.0 1.6 0.00 0.00 0.00 90 1014.0
20260904115254 26 211 3.2 3.2 0.00 0.00 0.00 90 1013.8
20260904114748 26 349 0.0 1.6 0.00 0.00 0.00 90 1014.0
20260904114248 26 146 0.0 1.6 0.00 0.00 0.00 90 1014.0
20260904113743 26 301 0.0 1.6 0.00 0.00 0.00 91 1014.0
20260904113242 26 3 0.0 0.0 0.00 0.00 0.00 91 1014.2
20260904112737 26 43 4.8 8.0 0.00 0.00 0.00 91 1013.7
20260904112233 26 330 0.0 0.0 0.00 0.00 0.00 91 1013.8
20260904111729 26 158 1.6 3.2 0.00 0.00 0.00 91 1013.9
20260904111224 26 123 1.6 1.6 0.00 0.00 0.00 91 1013.9
20260904110720 26 98 0.0 0.0 0.00 0.00 0.00 91 1013.7
20260904110219 26 334 3.2 3.2 0.00 0.00 0.00 91 1013.8
20260904105714 26 212 1.6 1.6 0.00 0.00 0.00 91 1013.7
20260904105209 26 194 1.6 1.6 0.00 0.00 0.00 91 1013.7
20260904104704 26 166 1.6 1.6 0.00 0.00 0.00 91 1013.9
20260904104200 26 354 1.6 1.6 0.00 0.00 0.00 91 1013.6
20260904103656 26 248 3.2 3.2 0.00 0.00 0.00 91 1013.4
20260904103151 26 345 0.0 1.6 0.00 0.00 0.00 91 1013.6
20260904102647 26 323 3.2 3.2 0.00 0.00 0.00 91 1013.5
20260904102142 26 358 1.6 1.6 0.00 0.00 0.00 91 1013.6
20260904101639 26 326 1.6 3.2 0.00 0.00 0.00 91 1013.6
20260904101134 26 148 0.0 1.6 0.00 0.00 0.00 91 1013.9
20260904100630 26 101 1.6 3.2 0.00 0.00 0.00 91 1013.8
20260904100125 26 147 4.8 9.7 0.00 0.00 0.00 91 1013.8
20260904095619 26 316 1.6 3.2 0.00 0.00 0.00 92 1013.6
20260904095114 26 344 1.6 1.6 0.00 0.00 0.00 92 1013.7
20260904094609 26 291 0.0 1.6 0.00 0.00 0.00 91 1014.0
20260904094104 26 357 0.0 0.0 0.00 0.00 0.00 91 1013.6
20260904093601 26 342 0.0 0.0 0.00 0.00 0.00 91 1013.8
20260904093101 26 9 0.0 0.0 0.00 0.00 0.00 91 1013.6
20260904092557 26 229 1.6 3.2 0.00 0.00 0.00 91 1013.7
20260904092053 26 332 1.6 1.6 0.00 0.00 0.00 91 1013.9
20260904091549 26 143 4.8 4.8 0.00 0.00 0.00 91 1013.9
20260904091048 26 349 0.0 0.0 0.00 0.00 0.00 91 1013.9
20260904090544 26 294 1.6 1.6 0.00 0.00 0.00 90 1013.7
20260904090039 26 4 3.2 3.2 0.00 0.00 0.00 90 1013.5
20260904085534 26 5 0.0 1.6 0.00 0.00 0.00 90 1013.6
20260904085034 26 54 1.6 3.2 0.00 0.00 0.00 90 1013.7
20260904084530 26 211 1.6 1.6 0.00 0.00 0.00 90 1013.7
20260904084026 26 344 1.6 4.8 0.00 0.00 0.00 90 1013.5
20260904083522 26 163 1.6 1.6 0.00 0.00 0.00 90 1013.7
20260904083017 26 315 1.6 1.6 0.00 0.00 0.00 90 1013.6
20260904082512 26 34 0.0 0.0 0.00 0.00 0.00 90 1013.5
20260904082007 26 282 1.6 3.2 0.00 0.00 0.00 90 1013.8
20260904081503 26 300 0.0 1.6 0.00 0.00 0.00 90 1013.8
20260904080958 26 348 0.0 1.6 0.00 0.00 0.00 90 1013.6
20260904080453 26 230 3.2 3.2 0.00 0.00 0.00 90 1013.7
20260904075949 26 259 0.0 0.0 0.00 0.00 0.00 90 1013.5
20260904075445 26 252 0.0 1.6 0.00 0.00 0.00 90 1013.8
20260904074944 26 330 1.6 3.2 0.00 0.00 0.00 90 1013.6
20260904074439 26 350 0.0 1.6 0.00 0.00 0.00 90 1013.6
20260904073934 26 124 1.6 3.2 0.00 0.00 0.00 90 1013.6
20260904073430 26 255 1.6 3.2 0.00 0.00 0.00 89 1013.8
20260904072925 26 303 0.0 0.0 0.00 0.00 0.00 89 1013.8
20260904072420 26 229 1.6 3.2 0.00 0.00 0.00 90 1013.7
20260904071915 26 324 1.6 1.6 0.00 0.00 0.00 90 1013.7
20260904071411 26 28 0.0 1.6 0.00 0.00 0.00 89 1013.5
20260904070906 26 293 1.6 1.6 0.00 0.00 0.00 90 1013.6
20260904070405 26 301 1.6 1.6 0.00 0.00 0.00 90 1013.6
20260904065904 26 283 1.6 3.2 0.00 0.00 0.00 90 1013.7
20260904065401 26 146 1.6 1.6 0.00 0.00 0.00 90 1013.6
20260904064900 26 210 0.0 1.6 0.00 0.00 0.00 90 1013.5
20260904064357 26 238 0.0 0.0 0.00 0.00 0.00 90 1013.5
20260904063852 26 359 0.0 1.6 0.00 0.00 0.00 90 1013.6
20260904063348 26 269 1.6 1.6 0.00 0.00 0.00 90 1013.4
20260904062843 26 307 0.0 0.0 0.00 0.00 0.00 90 1013.5
20260904062340 26 293 1.6 3.2 0.00 0.00 0.00 90 1013.5
20260904061835 26 162 0.0 1.6 0.00 0.00 0.00 90 1013.5
20260904061331 26 97 0.0 1.6 0.00 0.00 0.00 90 1013.9
20260904060827 26 204 0.0 0.0 0.00 0.00 0.00 90 1014.0
20260904060323 26 158 1.6 1.6 0.00 0.00 0.00 90 1014.0
20260904055818 26 9 0.0 0.0 0.00 0.00 0.00 90 1014.0
20260904055313 26 336 1.6 1.6 0.00 0.00 0.00 90 1014.2
20260904054803 26 262 1.6 1.6 0.00 0.00 0.00 90 1014.1
20260904054259 26 30 3.2 3.2 0.00 0.00 0.00 90 1014.2
20260904053754 26 347 0.0 0.0 0.00 0.00 0.00 90 1014.2
20260904053253 26 343 0.0 1.6 0.00 0.00 0.00 90 1014.2
20260904052750 26 180 1.6 1.6 0.00 0.00 0.00 90 1014.5
20260904052245 26 105 0.0 1.6 0.00 0.00 0.00 89 1014.5
20260904051742 26 349 0.0 0.0 0.00 0.00 0.00 89 1014.7
20260904051237 26 258 3.2 3.2 0.00 0.00 0.00 89 1014.6
20260904050732 26 193 3.2 4.8 0.00 0.00 0.00 90 1014.4
20260904050228 27 242 3.2 4.8 0.00 0.00 0.00 89 1014.5
20260904045723 27 164 4.8 4.8 0.00 0.00 0.00 89 1014.5
20260904045218 27 232 0.0 0.0 0.00 0.00 0.00 89 1014.4
20260904044712 27 254 1.6 1.6 0.00 0.00 0.00 89 1014.6
20260904044209 27 216 1.6 1.6 0.00 0.00 0.00 89 1014.6
20260904043705 27 258 3.2 3.2 0.00 0.00 0.00 89 1014.7
20260904043201 27 146 0.0 0.0 0.00 0.00 0.00 88 1014.6
20260904042657 27 313 3.2 4.8 0.00 0.00 0.00 88 1014.6
20260904042153 27 359 4.8 4.8 0.00 0.00 0.00 88 1014.5
20260904041647 27 187 3.2 4.8 0.00 0.00 0.00 88 1014.7
20260904041143 27 8 1.6 3.2 0.00 0.00 0.00 88 1014.7
20260904040639 27 119 1.6 1.6 0.00 0.00 0.00 88 1014.7
20260904040135 27 280 1.6 3.2 0.00 0.00 0.00 88 1014.7
20260904035631 27 340 0.0 0.0 0.00 0.00 0.00 88 1014.6
20260904035130 27 109 0.0 0.0 0.00 0.00 0.00 88 1014.6
20260904034630 27 253 3.2 3.2 0.00 0.00 0.00 88 1014.5
20260904034125 27 180 3.2 4.8 0.00 0.00 0.00 87 1014.6
20260904033621 27 237 1.6 1.6 0.00 0.00 0.00 87 1014.6
20260904033119 27 190 3.2 3.2 0.00 0.00 0.00 87 1014.6
20260904032614 27 231 0.0 0.0 0.00 0.00 0.00 87 1014.7
20260904032113 27 252 1.6 1.6 0.00 0.00 0.00 86 1014.7
20260904031612 27 309 1.6 3.2 0.00 0.00 0.00 86 1014.7
20260904031108 27 220 1.6 1.6 0.00 0.00 0.00 85 1014.8
20260904030604 27 225 0.0 1.6 0.00 0.00 0.00 85 1014.5
20260904030059 27 205 0.0 1.6 0.00 0.00 0.00 85 1014.8
20260904025554 28 191 1.6 1.6 0.00 0.00 0.00 85 1014.8
20260904025049 28 203 0.0 0.0 0.00 0.00 0.00 85 1014.6
20260904024545 28 210 1.6 1.6 0.00 0.00 0.00 84 1014.8
20260904024041 28 341 1.6 1.6 0.00 0.00 0.00 85 1014.6
20260904023537 28 161 1.6 3.2 0.00 0.00 0.00 84 1015.0
20260904023033 28 214 1.6 3.2 0.00 0.00 0.00 84 1014.9
20260904022533 28 180 4.8 8.0 0.00 0.00 0.00 84 1014.9
20260904022030 28 184 4.8 4.8 0.00 0.00 0.00 84 1014.9
20260904021525 28 200 1.6 1.6 0.00 0.00 0.00 84 1015.3
20260904021020 28 247 0.0 0.0 0.00 0.00 0.00 84 1015.4
20260904020520 28 191 0.0 0.0 0.00 0.00 0.00 84 1015.1
20260904020015 28 209 1.6 1.6 0.00 0.00 0.00 83 1015.1
20260904015509 28 233 3.2 3.2 0.00 0.00 0.00 83 1015.2
20260904015008 28 125 0.0 1.6 0.00 0.00 0.00 83 1015.4
20260904014503 28 216 0.0 0.0 0.00 0.00 0.00 84 1015.2
20260904013958 28 238 1.6 3.2 0.00 0.00 0.00 84 1015.1
20260904013454 28 190 1.6 1.6 0.00 0.00 0.00 85 1015.1
20260904012951 28 354 0.0 1.6 0.00 0.00 0.00 85 1015.0
20260904012450 28 162 1.6 1.6 0.00 0.00 0.00 85 1014.9
20260904011944 28 220 0.0 0.0 0.00 0.00 0.00 86 1014.9
20260904011439 28 5 0.0 0.0 0.00 0.00 0.00 85 1015.0
20260904010935 28 10 0.0 0.0 0.00 0.00 0.00 85 1014.8
20260904010431 28 353 0.0 0.0 0.00 0.00 0.00 84 1014.8
20260904005926 28 192 0.0 1.6 0.00 0.00 0.00 84 1014.8
20260904005422 29 239 0.0 1.6 0.00 0.00 0.00 83 1014.3
20260904004921 29 137 0.0 0.0 0.00 0.00 0.00 83 1014.4
20260904004418 30 182 1.6 3.2 0.00 0.00 0.00 82 1014.1
20260904003919 30 88 1.6 1.6 0.00 0.00 0.00 82 1014.2
20260904003414 30 219 1.6 3.2 0.00 0.00 0.00 82 1014.1
20260904002909 30 267 0.0 1.6 0.00 0.00 0.00 81 1014.0
20260904002406 30 251 4.8 8.0 0.00 0.00 0.00 82 1013.8
20260904001904 30 207 1.6 1.6 0.00 0.00 0.00 83 1013.4
20260904001400 30 182 3.2 3.2 0.00 0.00 0.00 83 1013.5
20260904000855 28 82 3.2 4.8 0.00 0.00 0.00 85 1013.5
20260904000355 28 227 3.2 4.8 0.00 0.00 0.00 91 1013.4
20260903235855 28 357 0.0 0.0 0.00 0.00 0.00 91 1013.4
20260903235351 28 357 0.0 0.0 0.00 0.00 0.00 91 1013.2
20260903234850 28 354 0.0 0.0 0.00 0.00 0.00 91 1013.1
20260903234346 28 354 0.0 0.0 0.00 0.00 0.00 91 1013.0
20260903233842 28 354 0.0 0.0 0.00 0.00 0.00 90 1013.1
20260903233338 28 354 0.0 0.0 0.00 0.00 0.00 90 1012.9
20260903232837 28 354 0.0 0.0 0.00 0.00 0.00 90 1012.8
20260903232333 28 354 0.0 0.0 0.00 0.00 0.00 90 1012.9
20260903231832 28 356 0.0 0.0 0.00 0.00 0.00 90 1013.0
20260903231328 28 356 0.0 0.0 0.00 0.00 0.00 89 1012.9
20260903230823 28 355 0.0 0.0 0.00 0.00 0.00 89 1013.0
20260903230318 28 356 0.0 0.0 0.00 0.00 0.00 89 1013.1
20260903225814 29 354 0.0 0.0 0.00 0.00 0.00 88 1013.1
20260903225310 29 354 0.0 0.0 0.00 0.00 0.00 88 1013.0
20260903224807 29 353 0.0 0.0 0.00 0.00 0.00 88 1013.0
20260903224302 29 3 0.0 0.0 0.00 0.00 0.00 88 1012.8
20260903223758 30 355 0.0 0.0 0.00 0.00 0.00 88 1013.0
20260903223256 30 356 0.0 0.0 0.00 0.00 0.00 88 1013.0
20260903222751 30 359 0.0 1.6 0.00 0.00 0.00 87 1012.9
20260903222250 30 341 0.0 0.0 0.00 0.00 0.00 87 1012.9
20260903221745 30 2 0.0 0.0 0.00 0.00 0.00 87 1013.0
20260903221244 30 353 0.0 0.0 0.00 0.00 0.00 86 1012.9
20260903220742 30 346 0.0 0.0 0.00 0.00 0.00 86 1013.2
20260903220237 31 351 0.0 0.0 0.00 0.00 0.00 85 1013.1
20260903215736 31 349 0.0 0.0 0.00 0.00 0.00 85 1013.1
20260903215232 31 346 0.0 0.0 0.00 0.00 0.00 84 1013.1
20260903214729 31 328 0.0 0.0 0.00 0.00 0.00 84 1013.2
20260903214226 32 358 0.0 0.0 0.00 0.00 0.00 84 1013.1
20260903213720 32 355 0.0 0.0 0.00 0.00 0.00 82 1013.2
20260903213216 32 9 0.0 0.0 0.00 0.00 0.00 80 1013.2
20260903212712 32 318 0.0 1.6 0.00 0.00 0.00 80 1013.3
20260903212208 32 6 0.0 0.0 0.00 0.00 0.00 79 1013.2
20260903211707 32 306 0.0 0.0 0.00 0.00 0.00 79 1013.2
20260903211204 32 323 0.0 0.0 0.00 0.00 0.00 79 1013.3
20260903210700 33 9 0.0 0.0 0.00 0.00 0.00 77 1013.4
20260903210155 33 341 0.0 0.0 0.00 0.00 0.00 77 1013.3
20260903205655 33 8 0.0 0.0 0.00 0.00 0.00 76 1013.2
20260903205153 33 330 0.0 1.6 0.00 0.00 0.00 74 1013.3
20260903204649 34 244 0.0 0.0 0.00 0.00 0.00 71 1013.5
20260903204146 34 16 0.0 0.0 0.00 0.00 0.00 71 1013.3
20260903203641 35 43 0.0 0.0 0.00 0.00 0.00 70 1013.6
20260903203136 35 295 0.0 0.0 0.00 0.00 0.00 66 1013.5
20260903202631 36 216 0.0 1.6 0.00 0.00 0.00 63 1013.6
20260903202126 36 283 0.0 0.0 0.00 0.00 0.00 62 1013.6
20260903201620 36 272 1.6 1.6 0.00 0.00 0.00 61 1013.9
20260903201120 36 350 0.0 0.0 0.00 0.00 0.00 63 1014.0
20260903200615 36 285 0.0 0.0 0.00 0.00 0.00 62 1013.9
20260903200110 36 200 1.6 3.2 0.00 0.00 0.00 63 1014.3